Houston / Dunn Helistop, TX

8:17 AM CDT on July 25, 2017 (GMT -0500)
Houston / Dunn Helistop

Weather History for KMCJ - December, 2012

Change the Weather History Date:

Sunday, December 9, 2012

  Actual Average (KHOU) Record (KHOU)
Temperature  
Mean Temperature 73 °F -  
Max Temperature 80 °F 63 °F 82 °F (2007)
Min Temperature 66 °F 45 °F 25 °F (1917)
Cooling Degree Days 8    
Growing Degree Days 23 (Base 50)    
Moisture  
Dew Point 67 °F    
Average Humidity 86    
Maximum Humidity 100    
Minimum Humidity 65    
Precipitation  
Precipitation 0.00 in - - ()
Sea Level Pressure  
Sea Level Pressure 29.83 in    
Wind  
Wind Speed 7 mph (SSW)    
Max Wind Speed 15 mph    
Max Gust Speed 23 mph    
Visibility 7 miles    
Events      
Averages and records for this station are not official NWS values.
T = Trace of Precipitation, MM = Missing Value Source: NWS Daily Summary

Daily Weather History Graph

Daily Weather History Graph

Search for Another Location

Airport or City:

Trip Planner

Search our weather history database for the weather conditions in past years. The results will help you decide how hot, cold, wet, or windy it might be!

Date:

Astronomy

Dec. 09, 2012 Rise Set
Actual Time 7:05 AM CST 5:22 PM CST
Civil Twilight 6:39 AM CST 5:48 PM CST
Nautical Twilight 6:09 AM CST 6:18 PM CST
Astronomical Twilight 5:40 AM CST 6:47 PM CST
Moon 2:52 AM CST (12/9) 2:18 PM CST (12/9)
Length of Visible Light 11h 09m
Length of Day
10h 17m
Waning Crescent, 18% of the Moon is Illuminated
Dec 9
Waning Crescent
Dec 13
New
Dec 19
First Quarter
Dec 28
Full
Jan 4
Last Quarter

Hourly Weather History & Observations

Time (CST) Temp. Heat Index Dew Point Humidity Pressure Visibility Wind Dir Wind Speed Gust Speed Precip Events Conditions
12:15 AM 68.0 °F - 68.0 °F 100% 29.84 in 8.0 mi South 9.2 mph - N/A   Clear
12:35 AM 68.0 °F - 68.0 °F 100% 29.84 in 8.0 mi South 9.2 mph 16.1 mph N/A   Clear
12:55 AM 68.0 °F - 68.0 °F 100% 29.84 in 9.0 mi South 6.9 mph - N/A   Clear
1:15 AM 68.0 °F - 68.0 °F 100% 29.84 in 9.0 mi SSW 8.1 mph - N/A   Clear
1:35 AM 68.0 °F - 68.0 °F 100% 29.84 in 8.0 mi South 10.4 mph - N/A   Clear
1:55 AM 68.0 °F - 66.2 °F 94% 29.84 in 8.0 mi South 6.9 mph - N/A   Clear
2:15 AM 68.0 °F - 66.2 °F 94% 29.83 in 8.0 mi South 5.8 mph - N/A   Clear
2:35 AM 68.0 °F - 66.2 °F 94% 29.83 in 8.0 mi South 6.9 mph - N/A   Clear
2:55 AM 68.0 °F - 66.2 °F 94% 29.83 in 7.0 mi South 9.2 mph - N/A   Clear
3:15 AM 68.0 °F - 66.2 °F 94% 29.83 in 7.0 mi South 5.8 mph - N/A   Partly Cloudy
3:35 AM 68.0 °F - 66.2 °F 94% 29.83 in 7.0 mi SW 3.5 mph - N/A   Scattered Clouds
3:55 AM 68.0 °F - 66.2 °F 94% 29.84 in 7.0 mi SW 3.5 mph - N/A   Partly Cloudy
4:15 AM 68.0 °F - 66.2 °F 94% 29.84 in 7.0 mi Calm Calm - N/A   Scattered Clouds
4:35 AM 68.0 °F - 66.2 °F 94% 29.84 in 7.0 mi SW 6.9 mph - N/A   Scattered Clouds
4:55 AM 68.0 °F - 66.2 °F 94% 29.84 in 8.0 mi SW 6.9 mph - N/A   Partly Cloudy
5:15 AM 68.0 °F - 66.2 °F 94% 29.85 in 8.0 mi SW 8.1 mph - N/A   Clear
5:55 AM 68.0 °F - 66.2 °F 94% 29.86 in 5.0 mi SW 5.8 mph - N/A   Clear
6:15 AM 66.2 °F - 66.2 °F 100% 29.86 in 5.0 mi SW 4.6 mph - N/A   Clear
6:35 AM 66.2 °F - 66.2 °F 100% 29.86 in 0.2 mi South 5.8 mph - N/A   Unknown
6:55 AM 66.2 °F - 66.2 °F 100% 29.87 in 0.5 mi South 5.8 mph - N/A   Mostly Cloudy
7:15 AM 66.2 °F - 66.2 °F 100% 29.88 in 1.0 mi SSW 5.8 mph - N/A   Mostly Cloudy
7:35 AM 66.2 °F - 66.2 °F 100% 29.88 in 0.5 mi South 4.6 mph - N/A   Mostly Cloudy
7:55 AM 66.2 °F - 66.2 °F 100% 29.89 in 5.0 mi SSW 4.6 mph - N/A   Clear
8:15 AM 66.2 °F - 66.2 °F 100% 29.89 in 5.0 mi South 5.8 mph - N/A   Clear
8:35 AM 68.0 °F - 66.2 °F 94% 29.89 in 7.0 mi South 4.6 mph - N/A   Clear
8:55 AM 68.0 °F - 66.2 °F 94% 29.89 in 5.0 mi South 5.8 mph - N/A   Clear
9:15 AM 68.0 °F - 68.0 °F 100% 29.89 in 8.0 mi South 9.2 mph - N/A   Clear
9:35 AM 69.8 °F - 68.0 °F 94% 29.90 in 8.0 mi SW 3.5 mph - N/A   Partly Cloudy
9:55 AM 71.6 °F - 68.0 °F 88% 29.90 in 8.0 mi South 8.1 mph - N/A   Scattered Clouds
10:15 AM 73.4 °F - 68.0 °F 83% 29.89 in 8.0 mi South 10.4 mph - N/A   Partly Cloudy
10:35 AM 73.4 °F - 68.0 °F 83% 29.89 in 8.0 mi SSW 8.1 mph 16.1 mph N/A   Partly Cloudy
10:55 AM 75.2 °F - 68.0 °F 78% 29.89 in 7.0 mi SW 6.9 mph 18.4 mph N/A   Mostly Cloudy
11:15 AM 75.2 °F - 68.0 °F 78% 29.87 in 7.0 mi SW 5.8 mph - N/A   Mostly Cloudy
11:35 AM 77.0 °F - 68.0 °F 74% 29.87 in 7.0 mi SW 9.2 mph 18.4 mph N/A   Mostly Cloudy
11:55 AM 77.0 °F - 68.0 °F 74% 29.85 in 7.0 mi SW 10.4 mph 18.4 mph N/A   Overcast
12:15 PM 77.0 °F - 68.0 °F 74% 29.84 in 7.0 mi WSW 9.2 mph 17.3 mph N/A   Mostly Cloudy
12:35 PM 78.8 °F - 68.0 °F 69% 29.83 in 7.0 mi SW 10.4 mph 17.3 mph N/A   Mostly Cloudy
12:55 PM 78.8 °F - 68.0 °F 69% 29.82 in 7.0 mi WSW 8.1 mph - N/A   Mostly Cloudy
1:15 PM 78.8 °F - 66.2 °F 65% 29.81 in 7.0 mi SSW 5.8 mph 17.3 mph N/A   Mostly Cloudy
1:35 PM 80.6 °F 83.2 °F 68.0 °F 65% 29.80 in 7.0 mi SSW 6.9 mph 17.3 mph N/A   Mostly Cloudy
1:55 PM 77.0 °F - 68.0 °F 74% 29.80 in 5.0 mi SW 4.6 mph 16.1 mph N/A   Mostly Cloudy
2:35 PM 78.8 °F - 66.2 °F 65% 29.78 in 7.0 mi SSW 8.1 mph - N/A   Mostly Cloudy
2:55 PM 78.8 °F - 66.2 °F 65% 29.78 in 7.0 mi SW 6.9 mph 17.3 mph N/A   Scattered Clouds
3:15 PM 78.8 °F - 66.2 °F 65% 29.78 in 7.0 mi SW 5.8 mph 17.3 mph N/A   Partly Cloudy
3:35 PM 77.0 °F - 68.0 °F 74% 29.78 in 6.0 mi SW 4.6 mph 17.3 mph N/A   Mostly Cloudy
3:55 PM 77.0 °F - 68.0 °F 74% 29.77 in 7.0 mi South 15.0 mph 23.0 mph N/A   Mostly Cloudy
4:15 PM 77.0 °F - 68.0 °F 74% 29.77 in 7.0 mi South 13.8 mph 21.9 mph N/A   Scattered Clouds
4:35 PM 75.2 °F - 68.0 °F 78% 29.77 in 7.0 mi South 8.1 mph 17.3 mph N/A   Partly Cloudy
4:55 PM 75.2 °F - 68.0 °F 78% 29.77 in 7.0 mi SSW 5.8 mph 17.3 mph N/A   Mostly Cloudy
5:15 PM 75.2 °F - 68.0 °F 78% 29.78 in 8.0 mi SW 10.4 mph 17.3 mph N/A   Mostly Cloudy
5:35 PM 75.2 °F - 68.0 °F 78% 29.78 in 9.0 mi SW 5.8 mph - N/A   Scattered Clouds
5:55 PM 75.2 °F - 68.0 °F 78% 29.79 in 10.0 mi WSW 4.6 mph - N/A   Partly Cloudy
6:15 PM 73.4 °F - 68.0 °F 83% 29.78 in 10.0 mi SSW 4.6 mph - N/A   Clear
6:35 PM 73.4 °F - 68.0 °F 83% 29.79 in 9.0 mi SW 5.8 mph - N/A   Clear
6:55 PM 73.4 °F - 68.0 °F 83% 29.79 in 10.0 mi SW 9.2 mph 16.1 mph N/A   Clear
7:15 PM 73.4 °F - 68.0 °F 83% 29.79 in 9.0 mi WSW 4.6 mph - N/A   Clear
7:35 PM 73.4 °F - 68.0 °F 83% 29.78 in 9.0 mi SW 3.5 mph - N/A   Clear
7:55 PM 73.4 °F - 68.0 °F 83% 29.78 in 8.0 mi South 9.2 mph - N/A   Clear
8:15 PM 73.4 °F - 68.0 °F 83% 29.79 in 9.0 mi SSW 9.2 mph - N/A   Clear
8:35 PM 73.4 °F - 68.0 °F 83% 29.78 in 9.0 mi South 12.7 mph 16.1 mph N/A   Clear
8:55 PM 73.4 °F - 68.0 °F 83% 29.79 in 8.0 mi South 8.1 mph 17.3 mph N/A   Clear
9:15 PM 71.6 °F - 68.0 °F 88% 29.80 in 8.0 mi SW 10.4 mph 17.3 mph N/A   Clear
9:35 PM 71.6 °F - 68.0 °F 88% 29.80 in 8.0 mi SW 8.1 mph - N/A   Clear
9:55 PM 71.6 °F - 68.0 °F 88% 29.80 in 8.0 mi SSW 6.9 mph - N/A   Clear
10:15 PM 71.6 °F - 68.0 °F 88% 29.81 in 8.0 mi Calm Calm - N/A   Scattered Clouds
10:35 PM 71.6 °F - 68.0 °F 88% 29.81 in 8.0 mi SW 8.1 mph - N/A   Mostly Cloudy
10:55 PM 71.6 °F - 68.0 °F 88% 29.81 in 8.0 mi SW 5.8 mph - N/A   Overcast
11:15 PM 71.6 °F - 68.0 °F 88% 29.81 in 8.0 mi SW 3.5 mph - N/A   Overcast
11:35 PM 71.6 °F - 68.0 °F 88% 29.79 in 8.0 mi South 4.6 mph - N/A   Mostly Cloudy
11:55 PM 71.6 °F - 68.0 °F 88% 29.79 in 8.0 mi SW 8.1 mph - N/A   Scattered Clouds